DW2806 Weather Reports


Display with metric or nautical units.
time (UTC)temp
F
wind
direction
speed
MPH
gust
MPH
rain 1hr
in
rain 24hr
in
rain mn
in
humidity
%
barometer
mb
20260503234529 50 33 0.0 5.0 0.00 0.00 0.00 48 1025.7
20260503233029 51 33 0.0 4.0 0.00 0.00 0.00 45 1025.7
20260503231528 51 79 1.0 6.0 0.00 0.00 0.00 45 1025.7
20260503230033 52 68 0.0 6.0 0.00 0.00 0.00 44 1025.7
20260503224535 52 45 2.0 6.0 0.00 0.00 0.00 44 1025.7
20260503223026 52 88 0.0 9.0 0.00 0.00 0.00 44 1025.7
20260503221525 53 64 1.0 8.0 0.00 0.00 0.00 44 1025.7
20260503220027 53 70 1.0 6.0 0.00 0.00 0.00 44 1025.7
20260503214531 53 48 1.0 5.0 0.00 0.00 0.00 44 1025.7
20260503213029 53 34 3.0 8.0 0.00 0.00 0.00 43 1025.7
20260503211523 54 83 1.0 6.0 0.00 0.00 0.00 44 1025.7
20260503210039 54 37 3.0 6.0 0.00 0.00 0.00 43 1025.7
20260503204524 54 75 2.0 7.0 0.00 0.00 0.00 44 1025.7
20260503203023 54 83 2.0 8.0 0.00 0.00 0.00 45 1025.7
20260503201527 54 66 0.0 7.0 0.00 0.00 0.00 47 1025.7
20260503200021 55 51 2.0 8.0 0.00 0.00 0.00 47 1025.7
20260503194519 55 46 0.0 7.0 0.00 0.00 0.00 48 1025.7
20260503193018 54 38 0.0 7.0 0.00 0.00 0.00 49 1025.7
20260503191518 55 50 3.0 8.0 0.00 0.00 0.00 46 1025.7
20260503190016 55 52 0.0 5.0 0.00 0.00 0.00 50 1025.7
20260503184515 53 48 0.0 10.0 0.00 0.00 0.00 55 1025.7
20260503183008 52 72 3.0 12.0 0.00 0.00 0.00 53 1025.7
20260503181506 52 93 4.0 10.0 0.00 0.00 0.00 56 1025.7
20260503180005 51 73 3.0 7.0 0.00 0.00 0.00 60 1025.7
20260503174504 52 40 0.0 6.0 0.00 0.00 0.00 60 1025.7
20260503173001 51 77 0.0 4.0 0.00 0.00 0.00 65 1025.7
20260503171558 50 88 0.0 5.0 0.00 0.00 0.00 66 1025.7
20260503110125 43 37 0.0 0.0 0.00 0.00 0.00 86 1025.7
20260503081516 44 37 0.0 2.0 0.00 0.00 0.00 88 1025.7
20260503071510 45 37 0.0 2.0 0.00 0.00 0.00 87 1025.7
20260503060104 47 37 0.0 0.0 0.00 0.00 0.00 89 1025.7
20260503054558 47 37 0.0 0.0 0.00 0.00 0.00 90 1025.7
20260503053055 48 37 0.0 0.0 0.00 0.00 0.00 91 1025.7
20260503051554 48 37 0.0 0.0 0.00 0.00 0.00 91 1025.7
20260503050052 48 37 0.0 0.0 0.00 0.00 0.00 91 1025.7
20260503044555 48 37 0.0 0.0 0.00 0.00 0.00 91 1025.7
20260503043054 48 37 0.0 0.0 0.00 0.00 0.00 92 1025.7
20260503041650 48 37 0.0 0.0 0.00 0.00 0.00 92 1025.7
20260503040048 48 37 0.0 0.0 0.00 0.00 0.00 91 1025.7
20260503034549 48 37 0.0 0.0 0.00 0.00 0.00 91 1025.7
20260503033047 48 37 0.0 0.0 0.00 0.00 0.00 91 1025.7
20260503031556 48 37 0.0 0.0 0.00 0.00 0.00 91 1025.7
20260503030048 49 37 0.0 0.0 0.00 0.00 0.00 91 1025.7
20260503024547 49 37 0.0 0.0 0.00 0.00 0.00 91 1025.7
20260503023046 49 37 0.0 0.0 0.00 0.00 0.00 91 1025.7
20260503021548 49 37 0.0 0.0 0.00 0.00 0.00 91 1025.7
20260503020056 49 37 0.0 0.0 0.00 0.00 0.00 90 1025.7
20260503014552 49 37 0.0 0.0 0.00 0.00 0.00 91 1025.7
20260503013044 49 37 0.0 0.0 0.00 0.00 0.00 90 1025.7
20260503011548 49 37 0.0 0.0 0.00 0.00 0.00 90 1025.7
20260503010042 50 37 0.0 0.0 0.00 0.00 0.00 90 1025.7
20260503004541 50 37 0.0 0.0 0.00 0.00 0.00 90 1025.7
20260503003041 50 37 0.0 0.0 0.00 0.00 0.00 90 1025.7
20260503001540 50 37 0.0 0.0 0.00 0.00 0.00 90 1025.7
20260503000056 50 37 0.0 0.0 0.00 0.00 0.00 89 1025.7